Location: Unspecified
(0.0000°N, 0.0000°E)
Time: 09:53:05
(UTC+00:00)

Hubble Space Telescope - Pass Details

Date: 19 April 2018
Orbit: 537 x 541 km, 28.5° (Epoch: 18 July)

Event Time Altitude Azimuth Distance (km) Brightness Sun altitude
Rises 18:16:39 0° 221° (SW) 2,678 4.8 -4.3°
Reaches altitude 10° 18:19:13 10° 207° (SSW) 1,787 3.7 -4.9°
Maximum altitude 18:22:39 25° 151° (SSE) 1,104 2.0 -5.8°
Drops below altitude 10° 18:26:05 10° 94° (E) 1,786 2.8 -6.6°
Enters shadow 18:26:37 - 91° (E) 1,962 3.0 -6.7°
